Albion Park Observation History
Time Wind Speed Temp Pressure Rel. Hum Rain
14/11:30am WSW 19-26 kts 17.7°c 1011.6 hPa 38% 0.0mm
14/11:10am WSW 16-26 kts 17.5°c 1011.8 hPa 40% 0.0mm
14/11:00am WSW 16-24 kts 17.2°c 1012.1 hPa 40% 0.0mm
14/10:30am WSW 20-27 kts 16.8°c 1012.2 hPa 42% 0.0mm
14/10:04am WSW 16-26 kts 16.6°c 1012.3 hPa 44% 0.0mm
14/10:00am WSW 17-26 kts 16.5°c 1012.3 hPa 45% 0.0mm
14/09:30am WSW 16-27 kts 15.9°c 1012.1 hPa 45% 0.0mm
14/09:28am WSW 17-27 kts 15.9°c 1012.0 hPa 45% 0.0mm
14/09:00am W 20-26 kts 15.4°c 1011.9 hPa 48% 0.0mm
14/08:31am W 19-29 kts 15.0°c 1011.6 hPa 51% 0.0mm
14/08:30am W 20-29 kts 15.0°c 1011.6 hPa 51% 0.0mm
14/08:26am W 21-31 kts 14.9°c 1011.6 hPa 51% 0.0mm
14/08:00am WSW 19-27 kts 14.7°c 1011.3 hPa 50% 0.0mm
14/07:30am WSW 21-27 kts 14.3°c 1011.0 hPa 53% 0.0mm
14/07:00am W 15-19 kts 13.7°c 1010.5 hPa 56% 0.0mm
14/06:30am W 13-18 kts 14.3°c 1010.3 hPa 55% 0.0mm
14/06:00am NW 10-18 kts 14.6°c 1009.9 hPa 55% 0.0mm
14/05:30am N 5-14 kts 15.4°c 1009.8 hPa 54% 0.0mm
14/05:00am W 5-7 kts 14.5°c 1009.3 hPa 60% 0.0mm
14/04:30am WSW 11-17 kts 15.2°c 1009.1 hPa 58% 0.0mm
14/04:00am SSW 7-13 kts 15.9°c 1009.1 hPa 56% 0.0mm
14/03:30am W 11-17 kts 15.6°c 1008.8 hPa 57% 0.0mm
14/03:00am W 10-17 kts 15.8°c 1008.6 hPa 56% 0.0mm
14/02:30am W 15-23 kts 16.3°c 1008.5 hPa 55% 0.0mm
14/02:00am SW 6-14 kts 16.2°c 1008.8 hPa 54% 0.0mm
14/01:30am SW 5-9 kts 15.6°c 1008.9 hPa 56% 0.0mm
14/01:00am W 17-22 kts 16.2°c 1008.6 hPa 56% 0.0mm
14/12:30am W 21-28 kts 16.1°c 1008.4 hPa 58% 0.0mm
14/12:00am W 23-29 kts 16.4°c 1008.5 hPa 57% 0.0mm
Time Wind Speed Temp Pressure Rel. Hum Rain
13/11:51pm W 17-29 kts 16.4°c 1008.5 hPa 58% 0.0mm
13/11:30pm W 11-18 kts 16.6°c 1009.2 hPa 57% 0.0mm
13/11:00pm W 10-18 kts 16.4°c 1009.7 hPa 58% 0.0mm
13/10:30pm W 12-20 kts 16.2°c 1010.0 hPa 58% 0.0mm
13/10:00pm WSW 9-14 kts 17.1°c 1010.2 hPa 55% 0.0mm
13/09:30pm W 10-18 kts 16.8°c 1010.1 hPa 59% 0.0mm
13/09:00pm WSW 15-24 kts 17.4°c 1009.8 hPa 57% 0.0mm
13/08:48pm WSW 13-24 kts 17.2°c 1009.7 hPa 59% 0.0mm
13/08:30pm WNW 4-7 kts 15.9°c 1009.9 hPa 68% 0.0mm
13/08:00pm NNE 1-4 kts 14.1°c 1010.1 hPa 78% 0.0mm
13/07:30pm WNW 4-5 kts 14.9°c 1010.0 hPa 72% 0.0mm
13/07:00pm S 1-4 kts 14.3°c 1010.2 hPa 72% 0.0mm
13/06:30pm W 5-7 kts 16.5°c 1010.0 hPa 61% 0.0mm
13/06:00pm WNW 4-7 kts 16.0°c 1009.9 hPa 63% 0.0mm
13/05:30pm NW 5-8 kts 18.3°c 1009.7 hPa 51% 0.0mm
13/05:00pm W 11-15 kts 19.4°c 1010.0 hPa 47% 0.0mm
13/04:30pm WSW 10-13 kts 19.8°c 1009.7 hPa 51% 0.0mm
13/04:00pm W 11-15 kts 21.8°c 1009.5 hPa 43% 0.0mm
13/03:30pm WNW 11-15 kts 22.5°c 1009.0 hPa 42% 0.0mm
13/03:00pm W 9-12 kts 23.0°c 1009.0 hPa 42% 0.0mm
13/02:30pm W 12-16 kts 23.2°c 1009.1 hPa 40% 0.0mm
13/02:00pm NW 11-13 kts 23.2°c 1009.3 hPa 37% 0.0mm
13/01:30pm W 13-18 kts 23.2°c 1009.7 hPa 38% 0.0mm
13/01:00pm W 10-12 kts 23.1°c 1010.3 hPa 49% 0.0mm
13/12:30pm WNW 6-9 kts 22.8°c 1010.8 hPa 49% 0.0mm
13/12:00pm WSW 7-11 kts 22.6°c 1011.4 hPa 51% 0.0mm
13/11:30am WNW 7-13 kts 22.1°c 1012.0 hPa 53% 0.0mm
13/11:00am W 7-9 kts 21.8°c 1012.5 hPa 52% 0.0mm
13/10:30am W 6-11 kts 21.4°c 1012.9 hPa 55% 0.0mm
13/10:00am W 4-5 kts 19.8°c 1013.4 hPa 67% 0.0mm
13/09:30am CALM 0-3 kts 19.1°c 1013.6 hPa 69% 0.0mm
13/09:00am SW 1-4 kts 16.6°c 1014.1 hPa 87% 0.0mm
13/08:30am SW 4 kts 14.3°c 1014.1 hPa 99% 0.0mm
13/08:00am SW 3-4 kts 13.0°c 1014.1 hPa 100% 0.0mm
13/07:30am CALM 0 kts 11.3°c 1014.1 hPa 100% 0.0mm
13/07:00am CALM 0 kts 10.4°c 1014.1 hPa 99% 0.0mm
13/06:30am CALM 0 kts 10.9°c 1014.1 hPa 99% 0.0mm
13/06:00am CALM 0 kts 10.9°c 1014.2 hPa 99% 0.0mm
13/05:30am S 2-4 kts 11.4°c 1014.5 hPa 99% 0.0mm
13/05:00am CALM 0 kts 11.6°c 1014.6 hPa 99% 0.0mm
13/04:30am SW 3-4 kts 11.8°c 1014.6 hPa 99% 0.0mm
13/04:00am CALM 0 kts 12.1°c 1014.5 hPa 99% 0.0mm
13/03:30am SW 4-5 kts 11.7°c 1014.8 hPa 99% 0.0mm
13/03:00am SSW 3-5 kts 12.0°c 1015.1 hPa 99% 0.0mm
13/02:30am CALM 0 kts 13.0°c 1015.4 hPa 98% 0.0mm
13/02:00am S 4-6 kts 13.1°c 1015.5 hPa 96% 0.0mm
13/01:30am SW 5-6 kts 14.3°c 1015.9 hPa 91% 0.0mm
13/01:00am WSW 5-7 kts 14.2°c 1016.1 hPa 97% 0.0mm
13/12:30am WSW 5-7 kts 13.1°c 1016.0 hPa 99% 0.0mm
13/12:00am CALM 0 kts 13.7°c 1016.6 hPa 99% 0.0mm
Time Wind Speed Temp Pressure Rel. Hum Rain
12/11:30pm W 3-5 kts 14.2°c 1017.1 hPa 98% 0.0mm
12/11:00pm W 6-8 kts 14.1°c 1017.3 hPa 99% 0.0mm
12/10:30pm SW 3-4 kts 13.4°c 1017.8 hPa 99% 0.0mm
12/10:00pm SW 3-5 kts 13.9°c 1018.4 hPa 98% 0.0mm
12/09:30pm SW 1-4 kts 13.8°c 1018.4 hPa 97% 0.0mm
12/09:00pm CALM 0 kts 14.3°c 1018.4 hPa 94% 0.0mm
12/08:30pm SW 4-5 kts 15.7°c 1018.3 hPa 88% 0.0mm
12/08:00pm SW 4-6 kts 16.1°c 1018.8 hPa 87% 0.0mm
12/07:30pm SW 5-7 kts 15.8°c 1018.6 hPa 87% 0.0mm
12/07:00pm SW 3-5 kts 15.4°c 1018.7 hPa 92% 0.0mm
12/06:30pm SW 4-5 kts 15.8°c 1018.3 hPa 90% 0.0mm
12/06:00pm SSW 4-5 kts 16.3°c 1018.2 hPa 86% 0.0mm
12/05:30pm SSE 7-9 kts 17.4°c 1018.0 hPa 81% 0.0mm
12/05:00pm SSE 7-9 kts 17.5°c 1017.6 hPa 82% 0.0mm
12/04:30pm SSE 7-9 kts 18.8°c 1017.6 hPa 78% 0.0mm
12/04:00pm SE 7-10 kts 19.8°c 1017.9 hPa 73% 0.0mm
12/03:30pm SSE 6-8 kts 20.7°c 1018.1 hPa 67% 0.0mm
12/03:00pm SSE 6-8 kts 20.7°c 1018.1 hPa 63% 0.0mm
12/02:30pm SE 5-8 kts 21.2°c 1018.1 hPa 63% 0.0mm
12/02:00pm SSE 7-11 kts 20.9°c 1018.3 hPa 63% 0.0mm
12/01:30pm SE 6-10 kts 21.0°c 1018.3 hPa 61% 0.0mm
12/01:00pm ESE 5-7 kts 21.0°c 1018.9 hPa 62% 0.0mm
12/12:30pm E 4-6 kts 20.5°c 1019.3 hPa 62% 0.0mm
12/12:00pm E 6-9 kts 20.5°c 1019.7 hPa 64% 0.0mm
12/11:30am ENE 4-6 kts 20.3°c 1020.0 hPa 61% 0.0mm
12/11:00am NNW 3-7 kts 20.3°c 1020.4 hPa 65% 0.0mm
12/10:30am WNW 5-6 kts 19.2°c 1020.6 hPa 67% 0.0mm
12/10:00am SW 1-4 kts 17.7°c 1021.0 hPa 74% 0.0mm
12/09:30am W 4-5 kts 16.1°c 1020.9 hPa 83% 0.0mm
12/09:00am WSW 4-6 kts 14.9°c 1020.8 hPa 93% 2.8mm
12/08:30am CALM 0 kts 13.3°c 1020.9 hPa 100% 2.8mm
12/08:00am W 4-5 kts 12.2°c 1020.7 hPa 100% 2.8mm
12/07:30am W 4-5 kts 10.8°c 1020.4 hPa 100% 2.8mm
12/07:00am SW 5 kts 9.9°c 1020.2 hPa 100% 2.8mm
12/06:30am NW 2-4 kts 9.9°c 1019.8 hPa 99% 2.8mm
12/06:00am CALM 0-1 kts 10.4°c 1019.6 hPa 100% 2.8mm
12/05:30am SSW 3-5 kts 10.3°c 1019.3 hPa 100% 2.8mm
12/05:00am CALM 0-2 kts 10.5°c 1019.6 hPa 100% 2.8mm
12/04:30am CALM 0 kts 10.5°c 1019.4 hPa 100% 2.8mm
12/04:00am SSE 1-4 kts 10.1°c 1019.1 hPa 99% 2.8mm
12/03:30am NNW 2-4 kts 9.8°c 1019.0 hPa 99% 2.8mm
12/03:00am WSW 5-6 kts 10.0°c 1019.1 hPa 99% 2.8mm
12/02:30am WSW 4-5 kts 10.1°c 1019.2 hPa 99% 2.8mm
12/02:00am S 1-3 kts 10.4°c 1019.4 hPa 99% 2.8mm
12/01:30am CALM 0 kts 10.7°c 1019.5 hPa 99% 2.8mm
12/01:00am CALM 0 kts 10.8°c 1019.5 hPa 99% 2.8mm
12/12:30am S 2-5 kts 11.5°c 1019.3 hPa 99% 2.8mm
12/12:00am CALM 0-3 kts 12.5°c 1019.3 hPa 99% 2.8mm